RH
60 59 57 55 63 74 88 101 101 98 94 87 78 69 64 64 67 75 81 82 80 79 77 70 53 42 51 59 60 63 64 66 65 62 66 83 97 97 101 103 101 106 91 78 84 88 98 108 106 101 93 85 70 58 61 75 95 101 93 94 101 101 100 100 101 108 112 106 105 104 100 99 101 100 100 100 101 103 102 101 100 100 99 99 100
63 67 67 72 87 97 101 101 98 94 88 83 78 74 76 81 85 90 88 80 76 71 64 57 45 39 48 55 53 56 60 62 68 79 86 95 101 99 100 100 104 107 91 89 102 103 103 104 103 100 81 66 59 54 59 74 92 102 97 89 92 99 99 100 99 103 110 108 105 105 103 101 99 100 99 100 100 101 101 101 100 100 100 100 101
75 87 92 97 101 101 102 104 100 93 90 86 82 84 88 92 91 84 74 66 62 55 48 41 36 38 46 51 47 55 71 70 75 96 100 98 101 100 101 101 103 103 90 96 111 107 102 100 101 103 89 70 58 56 67 82 91 98 99 92 94 100 100 100 99 100 104 105 103 102 107 106 100 98 97 98 100 100 100 100 101 100 97 97 97
91 99 102 104 100 101 105 104 102 99 99 93 90 94 91 86 77 65 56 51 52 46 38 35 36 39 43 45 41 56 89 92 87 99 102 99 100 99 99 94 92 96 91 95 107 106 104 102 99 101 101 90 72 60 70 92 101 96 91 86 89 96 98 100 100 100 101 102 101 100 106 109 107 99 90 93 98 99 100 100 101 96 90 88 88
99 102 99 101 101 102 103 99 101 102 98 93 93 89 76 66 58 54 51 46 48 41 33 35 35 37 40 41 41 54 88 104 99 99 99 98 96 94 93 88 89 95 94 93 99 106 107 105 101 99 100 100 93 77 70 90 107 105 98 88 84 91 96 99 98 97 100 101 100 101 102 105 109 101 84 81 89 98 101 99 93 88 86 84 83
104 106 102 103 102 99 97 95 101 99 83 75 74 67 59 58 53 53 50 43 47 41 34 34 32 37 39 37 41 52 77 100 103 100 100 99 96 94 94 95 97 99 102 97 94 102 106 105 104 103 101 101 103 95 77 83 102 105 105 100 89 87 94 99 97 95 98 100 102 105 101 101 106 98 79 72 82 94 93 87 82 79 82 84 85
105 106 106 106 102 98 97 96 99 94 77 67 65 60 62 63 53 51 51 52 58 47 34 33 33 36 37 40 55 73 90 100 103 102 101 99 97 96 97 100 100 100 105 99 87 89 94 99 106 107 104 101 103 104 86 80 98 102 101 108 101 89 90 99 101 99 100 101 105 105 100 101 103 91 74 69 78 84 78 73 72 73 80 90 93
103 104 104 106 104 101 100 95 90 83 74 70 63 58 60 58 48 51 60 70 78 63 43 39 38 36 42 53 71 92 104 102 102 102 99 96 95 97 99 100 99 99 103 98 85 82 86 97 109 108 104 102 101 101 85 77 97 104 99 108 106 91 85 93 101 101 102 104 105 104 100 101 103 88 70 67 73 75 72 68 70 77 89 98 99
103 102 101 104 108 104 98 93 88 80 74 68 60 55 54 55 59 62 64 74 88 82 62 49 41 38 46 57 72 94 106 103 101 101 99 97 98 99 99 100 100 99 101 100 94 90 93 102 110 106 101 105 105 96 77 74 97 106 100 103 104 94 81 83 96 100 100 103 103 103 101 100 102 93 74 68 69 69 67 67 78 93 100 101 100
101 101 101 102 105 106 100 94 88 80 74 65 57 53 48 62 86 88 79 82 85 81 75 63 49 44 50 60 76 97 106 103 100 100 100 100 100 100 100 100 100 100 100 101 100 97 99 103 108 106 100 104 110 102 80 74 94 105 103 103 103 102 92 81 89 100 99 100 101 103 105 101 101 101 92 84 78 73 72 76 92 102 100 99 100
100 102 102 100 100 102 98 92 85 77 71 63 55 50 42 57 93 103 96 93 79 70 77 78 65 58 65 75 83 91 98 102 101 100 100 100 101 100 101 101 100 101 100 101 101 98 100 101 104 106 103 102 107 109 93 81 93 102 102 103 101 104 104 87 82 96 101 99 103 105 105 101 99 103 100 97 97 94 92 97 104 103 100 101 101
100 99 98 96 94 93 89 84 80 73 67 60 52 48 39 48 83 101 96 94 89 83 84 82 72 66 74 88 94 93 95 100 100 100 100 100 101 100 100 101 100 101 101 102 101 101 105 101 95 98 102 104 104 108 103 92 95 102 101 103 103 106 110 95 78 89 101 100 102 102 101 101 100 101 97 96 102 102 99 100 100 96 95 97 96
97 92 89 88 86 84 80 77 74 70 64 58 51 45 39 43 64 80 79 80 88 96 97 87 75 70 74 87 100 99 94 96 98 101 101 100 101 100 100 100 100 102 101 101 100 100 107 103 91 87 89 91 91 99 106 101 98 101 102 102 105 104 104 99 86 89 99 100 100 100 100 101 99 101 99 95 94 93 95 95 94 95 93 88 85
93 90 87 86 84 81 76 73 72 68 63 56 50 45 41 42 48 56 63 66 71 85 96 89 76 75 78 82 90 90 90 96 97 99 101 100 100 100 100 100 100 102 100 100 101 100 104 103 91 80 76 76 81 94 105 104 100 101 102 101 104 101 96 100 101 97 99 100 100 99 101 102 100 101 98 91 87 90 97 98 98 104 101 93 92
92 92 92 91 88 82 76 73 70 68 63 55 50 49 46 45 43 44 49 52 54 64 80 88 83 82 86 86 83 81 85 93 97 99 97 95 100 100 100 101 100 102 100 98 100 99 97 95 86 75 70 77 92 103 104 103 102 101 102 100 102 103 98 99 103 101 101 102 101 101 103 102 95 92 90 84 80 82 85 85 89 96 96 96 102
94 95 95 93 90 84 79 76 73 69 63 53 50 53 52 48 45 44 44 43 44 49 62 79 88 90 94 96 92 86 85 85 92 100 91 87 98 101 100 102 101 101 98 93 88 85 87 92 94 84 75 84 101 106 103 103 103 100 103 101 99 102 101 101 104 103 104 104 102 101 102 101 90 81 80 75 69 69 69 72 85 92 91 96 102
96 96 93 91 88 86 86 84 79 70 60 52 51 56 56 52 48 46 45 44 42 43 47 56 67 76 84 95 101 102 98 88 87 92 86 87 99 101 101 102 101 101 98 91 82 77 81 88 95 92 84 91 103 104 103 104 103 100 101 102 100 101 101 103 105 105 105 103 102 101 100 101 96 85 76 68 65 65 66 74 90 97 95 98 101
97 93 89 88 86 88 92 89 79 67 57 52 53 58 58 54 53 52 51 49 46 44 45 46 51 59 65 75 88 96 101 100 96 93 89 94 100 99 101 102 101 102 100 95 86 81 82 83 89 90 81 81 90 97 100 101 102 100 100 101 101 101 101 101 104 105 105 103 103 103 100 101 101 92 77 67 64 64 67 79 93 99 100 100 101
97 92 88 86 87 91 92 86 74 64 57 55 59 64 61 55 57 62 62 57 52 49 50 50 51 56 58 63 70 75 81 88 93 93 92 97 101 100 102 102 101 102 102 99 91 82 80 81 88 91 78 68 74 88 97 100 101 100 101 102 102 101 101 101 102 104 104 104 105 104 101 100 102 101 89 70 58 58 69 85 92 96 99 100 100
98 96 92 91 93 93 89 81 70 61 55 55 64 69 62 56 62 71 72 67 60 55 56 58 58 59 61 62 64 66 69 76 80 82 83 86 93 99 103 102 100 103 104 101 95 87 82 82 89 96 87 72 79 97 104 104 104 103 104 103 101 101 101 102 102 102 103 103 106 105 103 105 105 105 97 76 60 61 79 94 98 99 102 101 100
101 102 101 101 103 96 87 78 68 60 55 54 63 68 60 59 69 79 81 77 70 63 61 64 65 66 66 63 65 69 71 77 81 83 84 81 82 91 100 101 100 103 104 102 102 99 96 95 98 102 95 78 82 103 109 106 105 106 108 105 101 100 100 102 101 101 101 100 104 105 105 106 105 104 100 85 75 79 93 101 100 101 104 101 100
95 104 105 104 107 101 89 77 69 63 59 58 64 65 58 58 69 81 88 86 81 74 69 68 68 70 70 68 75 80 76 75 80 85 91 92 91 95 100 101 100 102 105 106 106 103 101 104 104 103 100 89 88 102 108 108 105 105 109 108 103 100 99 101 100 101 101 99 102 106 107 104 99 100 97 88 89 93 99 102 98 99 103 100 98
86 98 105 105 108 106 95 82 75 69 65 67 72 71 64 59 62 75 86 91 90 84 77 74 73 75 74 70 77 85 83 83 86 89 95 99 102 103 101 100 100 100 102 103 105 107 106 105 104 102 101 97 97 101 104 107 106 103 106 107 106 102 99 101 101 99 101 102 101 102 103 103 101 102 98 95 98 95 95 98 94 90 94 95 94
83 90 101 106 109 108 101 89 81 76 75 81 87 85 77 66 61 67 76 85 93 93 88 82 79 81 81 77 76 79 82 87 92 95 99 102 105 105 100 99 100 100 98 95 95 104 107 105 104 103 101 100 101 103 102 103 105 103 103 103 104 102 100 102 101 99 103 104 102 101 101 101 102 103 103 104 100 95 97 100 93 86 87 96 100
83 84 90 97 102 104 103 95 87 85 88 90 95 95 88 77 71 70 70 75 86 95 97 93 87 85 85 85 83 81 81 82 87 93 98 102 104 105 102 99 100 100 100 96 92 95 102 104 103 104 104 101 100 103 104 103 103 105 105 103 101 100 101 102 100 101 104 100 95 96 97 98 99 100 103 103 100 99 102 99 93 86 83 91 97
83 78 77 80 87 94 98 94 84 84 89 89 90 94 92 85 81 77 73 71 76 85 94 96 93 88 85 86 86 86 84 82 82 87 93 99 102 104 104 101 100 100 100 100 96 93 96 100 101 101 103 103 101 104 107 106 105 107 108 107 104 101 100 101 101 102 103 100 95 90 89 94 100 103 102 100 101 101 97 92 91 87 82 84 90
82 77 72 70 73 79 84 83 74 73 81 83 82 85 87 86 82 79 76 74 73 76 82 89 94 92 87 84 84 86 87 87 86 86 89 93 95 99 102 102 101 100 100 101 98 95 96 100 100 95 95 101 102 100 101 104 107 108 107 106 105 104 102 100 101 102 102 102 102 98 95 97 102 107 106 102 103 102 99 97 95 94 90 85 87
81 77 74 72 71 72 73 73 69 68 72 74 73 73 73 74 73 72 72 74 75 75 76 79 86 94 95 89 84 84 85 87 91 95 97 97 95 96 99 102 103 101 100 100 100 99 98 99 99 91 84 85 86 81 79 83 92 101 103 98 96 100 103 102 100 100 101 102 101 101 102 102 103 105 106 104 102 101 101 100 99 102 101 89 85
90 87 84 80 80 82 82 81 78 73 70 67 67 70 69 68 68 68 67 67 71 75 77 77 78 85 94 96 92 88 86 86 89 94 99 102 102 101 99 101 104 105 103 102 100 100 100 99 100 95 82 72 68 64 60 61 67 79 90 91 85 84 92 101 104 101 100 101 101 101 102 104 106 106 105 104 102 99 96 93 93 100 105 94 85
102 102 99 92 87 89 91 92 91 88 83 75 69 68 69 71 73 73 71 66 66 73 76 77 80 82 84 90 94 93 90 87 88 91 94 97 102 106 104 100 100 104 107 107 103 100 100 100 100 100 91 75 65 60 58 57 56 56 64 73 76 74 76 86 98 104 104 101 100 101 100 103 106 106 107 107 105 105 100 91 86 89 96 93 85
95 99 103 98 92 93 93 94 93 92 91 87 81 77 75 76 78 81 81 69 62 73 80 77 79 84 85 85 90 96 96 91 88 89 93 96 99 103 106 105 101 101 102 105 105 102 100 101 100 101 99 88 76 69 63 59 56 51 49 51 57 62 67 72 82 95 104 105 103 101 100 101 101 102 107 108 107 110 109 100 91 86 85 88 90
79 85 92 89 86 92 94 94 92 89 88 87 88 87 83 82 82 81 80 66 53 63 78 79 76 80 86 88 89 95 101 100 95 90 90 95 99 102 105 107 106 103 102 104 106 104 102 103 102 101 101 99 93 86 78 69 60 54 48 44 43 46 54 62 71 82 93 102 106 105 105 104 101 100 104 106 106 109 110 105 100 93 83 83 94
67 70 76 75 75 78 78 79 80 79 79 78 77 77 75 74 73 70 67 59 49 50 61 71 74 76 84 91 92 95 101 104 105 102 95 91 94 98 101 104 106 106 105 105 107 107 105 104 103 102 103 103 101 98 95 90 82 72 60 48 40 36 38 44 53 65 77 89 97 103 108 109 104 101 100 101 102 106 109 107 103 98 88 81 88
82 78 74 71 70 70 68 69 70 68 67 64 61 60 60 61 63 62 58 54 50 47 49 57 66 76 89 93 93 97 101 101 104 108 107 101 97 97 98 101 105 106 105 103 105 108 109 107 105 105 105 104 103 103 102 100 99 96 87 74 59 47 39 35 35 43 54 67 78 86 96 102 103 102 102 101 100 100 103 108 108 105 100 90 82
101 97 91 85 84 84 82 80 79 73 67 60 54 51 52 54 55 55 53 47 42 41 47 53 60 74 91 96 94 99 103 103 102 105 108 107 104 102 103 105 106 106 103 99 97 100 104 107 107 108 107 105 104 104 104 104 103 101 101 98 91 80 68 56 45 38 36 44 55 63 71 81 88 95 100 102 103 102 100 102 105 106 109 107 96
105 105 102 100 99 99 97 91 82 72 66 61 57 53 51 50 48 46 44 40 38 42 51 59 65 74 85 91 94 99 102 100 99 102 105 106 107 107 106 106 107 108 106 101 98 96 96 97 100 105 107 106 104 103 102 104 105 103 102 102 102 100 95 88 78 64 48 39 39 45 52 61 69 77 85 90 95 100 102 102 103 103 103 108 110
105 105 104 102 101 101 101 93 81 72 68 64 59 57 54 49 43 41 38 35 40 50 56 59 65 71 79 90 97 101 103 100 98 101 104 105 106 106 106 105 107 109 107 103 104 104 102 98 95 96 100 102 103 102 102 102 101 101 103 103 102 102 102 101 98 91 79 61 47 40 40 46 55 64 72 79 83 88 93 98 104 106 103 102 106
104 105 104 102 99 100 102 96 85 76 72 66 57 52 50 46 42 44 48 48 49 49 47 50 57 63 69 77 80 83 90 97 101 103 104 104 102 99 99 100 101 103 103 102 103 104 105 106 105 101 99 99 100 101 102 102 102 101 102 102 101 102 103 101 100 100 98 90 76 60 48 43 44 50 58 66 74 79 83 87 91 96 100 102 103
105 106 104 100 98 103 104 98 85 75 70 67 61 56 52 46 43 46 51 51 48 43 41 46 52 54 55 55 50 46 51 64 77 87 96 104 106 101 97 93 92 93 95 98 103 103 103 105 109 109 107 105 105 105 103 102 103 104 104 103 103 102 102 101 100 101 101 101 98 89 76 65 54 48 48 50 55 63 70 75 77 78 81 84 88
103 106 105 100 101 104 98 87 83 84 85 81 75 75 73 61 49 46 45 44 43 43 43 46 48 47 46 45 40 34 32 36 45 56 68 81 92 95 94 89 84 80 78 81 89 99 104 105 105 106 107 107 106 106 105 104 104 104 104 106 106 104 103 104 103 101 100 100 102 101 97 92 83 73 63 53 46 44 47 53 58 62 63 63 64
102 103 104 102 102 102 94 88 91 97 99 95 90 91 90 77 62 53 50 48 48 48 48 49 49 45 41 40 38 33 32 32 33 37 43 49 58 65 69 68 64 61 59 62 69 81 93 101 103 102 101 103 104 103 104 104 104 104 103 103 103 102 103 105 104 104 104 103 101 102 102 101 100 97 90 80 68 56 47 41 37 38 42 43 45
102 101 102 103 103 101 98 97 99 100 100 101 100 99 97 92 83 75 69 65 61 59 57 52 48 45 42 41 39 34 32 32 32 33 34 35 38 40 43 44 44 44 48 53 60 69 79 89 98 102 101 100 102 103 104 104 103 104 106 105 104 102 100 101 100 100 105 107 104 103 103 100 101 105 102 98 94 87 78 68 54 43 38 34 33
103 103 102 103 102 102 101 99 99 99 99 100 101 101 101 100 99 94 90 89 85 78 70 59 50 44 41 40 38 36 34 33 32 33 33 33 34 34 34 35 37 41 45 49 55 63 68 74 85 98 104 103 102 103 106 107 104 103 104 106 107 106 105 104 101 94 93 98 103 107 104 96 95 103 105 101 101 101 98 96 90 81 72 63 55
102 104 104 103 104 104 102 100 100 100 100 101 100 100 100 101 102 102 102 105 100 87 76 67 58 49 44 39 36 35 34 35 35 36 35 34 34 33 33 34 36 42 47 54 60 61 60 61 69 82 95 99 97 96 99 104 106 105 103 103 104 106 108 109 108 101 90 86 93 104 107 95 87 93 100 97 96 97 97 97 98 98 98 95 90
102 103 102 102 104 105 103 100 100 99 100 101 100 100 101 102 101 101 101 100 92 79 72 67 59 51 46 42 38 35 33 33 34 37 39 40 40 38 36 35 35 37 42 54 67 68 62 60 62 68 77 83 83 81 80 83 90 95 97 98 97 98 101 102 104 105 98 87 86 94 103 99 89 88 93 90 86 87 90 91 90 91 94 98 99
108 107 105 103 102 104 104 102 101 101 101 101 100 101 104 104 99 95 93 90 83 76 69 61 54 50 47 44 41 40 37 33 32 32 35 38 41 43 44 43 41 39 38 43 52 56 58 62 65 64 64 67 69 71 72 71 73 79 85 90 92 92 95 96 96 97 95 89 85 88 97 100 89 86 92 93 87 84 85 87 88 86 88 91 94
112 109 107 107 104 104 106 105 103 103 101 98 97 97 99 101 100 98 97 92 86 77 67 59 53 51 48 45 43 41 39 38 36 35 35 36 37 40 42 44 46 47 47 46 44 42 42 46 52 57 58 59 59 63 68 73 75 77 79 81 84 85 88 92 94 95 93 88 83 82 91 97 87 78 82 87 87 87 86 85 86 86 85 87 89
107 105 102 102 102 101 102 101 100 99 97 96 96 96 95 95 98 102 105 100 89 76 65 59 55 52 50 47 45 44 44 45 46 45 45 44 42 41 40 41 42 44 47 49 48 46 44 40 38 40 43 46 48 52 57 64 70 75 76 77 76 74 75 80 84 88 90 91 88 84 87 94 90 80 77 77 79 82 83 81 80 81 82 84 86
102 102 99 97 97 98 97 96 95 94 94 95 93 92 92 93 96 102 106 101 88 73 63 57 53 51 50 48 48 51 55 57 57 56 54 52 49 47 45 43 43 42 42 43 44 47 48 47 44 40 37 36 37 39 42 46 51 57 64 70 72 71 73 76 78 80 81 81 82 81 82 88 90 88 86 84 81 80 80 78 75 73 74 76 78
107 107 105 102 102 101 100 98 95 92 90 88 85 84 85 89 95 100 99 91 79 67 59 54 52 51 48 46 48 55 61 64 63 61 59 57 54 52 50 48 46 44 43 42 43 43 44 45 46 46 45 42 38 35 34 34 36 39 43 49 54 58 64 71 76 79 80 79 76 72 70 74 77 80 84 88 87 83 81 79 76 73 70 68 67
106 106 104 102 102 100 97 95 91 88 86 83 82 83 85 88 92 91 84 74 65 58 53 51 51 50 47 46 50 57 62 64 64 62 61 60 59 58 57 55 52 49 46 44 43 42 41 41 42 43 44 44 42 40 38 35 33 33 33 34 35 38 43 50 57 64 72 78 78 73 67 65 64 64 66 70 75 76 75 74 72 71 69 66 63
Wind_Speed
55 55 55 55 53 50 46 46 48 48 49 49 49 49 49 49 49 48 47 48 49 50 51 51 50 48 48 49 47 45 43 42 40 38 35 34 34 34 35 35 35 35 35 36 37 35 32 30 31 32 32 32 33 35 37 39 39 39 39 38 34 32 32 32 34 36 35 33 33 33 32 31 29 29 29 28 26 24 23 22 21 21 21 22 22
54 54 54 52 48 45 45 46 47 46 47 46 46 46 46 46 46 45 46 47 49 50 51 50 50 48 47 48 45 42 41 40 38 36 35 35 36 36 36 36 35 35 36 36 35 34 31 29 29 30 31 31 32 34 36 39 40 40 41 41 38 36 35 34 35 37 36 34 33 33 32 32 30 29 31 31 29 27 25 23 22 23 24 24 24
48 48 48 47 44 43 43 43 44 44 44 44 44 44 43 43 43 44 46 49 51 51 49 49 48 47 46 46 42 39 39 39 36 35 36 37 37 37 37 36 35 36 36 35 35 33 31 29 28 28 29 31 32 34 37 39 41 41 42 42 40 38 37 36 36 37 37 34 31 31 31 31 31 31 32 33 32 29 27 26 26 27 27 26 25
42 41 42 42 40 39 39 40 41 41 41 41 41 41 42 43 45 47 49 51 51 48 47 47 46 45 45 44 40 36 37 38 37 36 38 38 38 38 38 37 36 36 35 35 35 33 32 30 29 28 29 31 33 34 37 40 41 42 43 43 42 40 38 37 37 38 37 35 32 30 30 31 32 32 33 33 33 32 30 29 29 29 28 27 26
40 40 40 37 36 36 36 37 37 38 39 39 39 40 44 46 47 49 49 49 47 44 44 45 44 43 43 40 37 35 36 38 39 38 39 39 40 39 39 38 36 35 34 35 36 34 33 32 32 31 30 31 33 35 37 40 42 43 44 44 44 41 38 37 38 39 38 35 33 31 30 31 32 33 34 34 34 33 32 31 31 30 28 28 28
33 34 35 34 35 35 35 35 34 39 42 40 41 45 47 49 50 51 50 46 44 42 42 43 42 41 40 37 35 35 36 38 40 41 41 41 40 39 38 37 35 34 34 35 36 36 34 34 35 34 32 31 32 35 37 39 42 44 45 45 44 41 38 36 37 39 39 37 34 32 31 31 32 32 33 35 35 33 32 32 32 30 29 29 30
23 25 28 31 32 31 31 32 32 38 44 44 46 47 47 50 54 53 48 42 39 39 39 39 39 38 37 35 34 34 36 38 39 40 40 39 38 37 37 37 36 35 36 37 37 37 36 36 36 35 34 32 31 34 37 39 42 44 45 46 44 41 37 34 34 36 39 38 35 33 32 32 32 32 33 35 36 34 34 34 32 31 31 31 31
25 26 28 29 31 31 31 34 36 40 43 45 46 46 47 51 52 48 44 40 37 35 35 35 36 35 34 33 33 33 34 35 36 37 36 36 36 36 37 37 37 36 37 38 38 38 39 39 37 34 34 33 31 33 36 39 42 43 45 45 44 42 39 35 32 34 37 39 37 34 33 33 33 33 34 36 37 36 35 34 32 32 32 32 32
32 32 32 32 33 35 37 38 40 41 41 42 44 44 47 49 46 43 39 36 36 36 34 33 33 33 33 33 32 32 33 34 35 36 37 37 38 39 39 38 39 39 39 40 40 40 40 39 36 34 34 35 32 32 35 39 42 44 45 45 45 43 42 38 33 32 35 38 38 36 34 33 33 34 34 36 37 37 36 34 32 32 32 32 32
37 38 39 39 39 39 41 42 42 43 43 43 43 43 44 41 40 40 36 32 35 39 37 32 31 32 32 32 30 30 31 33 34 35 36 38 39 41 41 41 41 41 42 42 41 40 40 38 36 34 33 35 34 32 34 38 42 45 45 46 45 44 44 41 35 32 34 36 38 39 36 34 33 34 35 35 36 36 36 34 32 32 32 32 32
40 42 43 43 43 43 44 45 45 46 46 45 43 43 42 35 30 32 33 33 35 37 37 33 30 30 30 30 29 29 30 31 32 32 33 34 36 39 41 41 41 41 40 40 39 39 38 37 35 34 33 33 34 34 34 37 42 45 46 47 46 44 44 42 37 33 34 37 39 39 38 36 34 34 35 35 34 35 34 34 34 35 35 35 34
44 44 45 45 46 46 47 47 47 47 45 44 43 41 38 30 26 31 35 35 33 33 36 35 32 29 29 30 30 30 31 32 32 32 32 33 34 35 37 38 39 38 37 37 37 37 37 36 36 35 35 35 36 36 36 37 42 46 47 48 48 46 43 43 40 37 38 39 39 38 37 35 34 34 35 34 33 33 34 34 35 36 37 37 37
48 48 48 48 48 48 48 48 47 46 44 44 43 39 34 30 30 34 36 35 32 34 36 38 37 32 30 31 33 33 33 34 34 33 33 33 33 33 34 34 35 34 34 35 36 35 35 36 36 37 38 38 38 39 38 38 42 47 48 48 49 48 44 43 42 40 40 40 39 37 36 36 35 35 36 35 34 33 34 34 34 35 36 36 37
49 49 49 49 49 48 48 47 46 45 44 43 41 37 32 30 31 33 34 33 32 35 38 39 40 36 32 33 34 35 35 35 35 34 33 32 32 32 31 31 33 34 34 35 36 36 37 37 37 38 39 40 40 40 39 39 42 46 49 49 49 49 46 43 41 40 39 39 38 37 37 38 38 37 37 37 35 33 33 33 33 33 34 35 35
47 47 47 47 47 47 47 46 46 44 43 41 37 33 30 29 29 30 31 32 32 34 37 38 39 38 35 34 35 36 36 37 36 35 34 33 32 31 30 30 32 33 33 34 37 38 39 40 39 39 39 40 40 39 37 38 42 46 49 49 48 48 48 44 41 40 39 38 37 37 37 38 39 39 38 37 35 33 33 33 32 32 32 32 31
44 44 44 45 45 45 45 45 44 42 40 37 33 30 29 28 29 28 29 30 31 32 34 36 39 40 40 39 38 37 38 38 38 36 35 35 34 32 31 31 32 31 30 31 33 34 36 38 39 39 38 38 38 37 36 37 41 45 50 51 48 46 47 45 43 41 40 39 38 38 39 38 39 39 39 37 35 34 34 33 32 31 30 30 31
44 44 44 44 44 44 43 42 40 38 35 33 30 28 28 28 28 28 28 28 29 29 30 32 36 38 40 42 43 42 41 40 39 38 36 35 36 35 33 33 33 32 32 31 31 32 34 36 38 38 38 38 38 37 35 35 39 44 49 51 49 46 46 46 45 44 43 41 40 40 41 41 41 41 39 37 35 33 33 32 31 30 29 30 33
45 45 44 43 43 42 40 38 37 35 32 30 28 28 28 29 28 27 27 27 26 27 27 28 30 31 35 39 42 44 44 43 42 41 37 34 33 34 32 31 32 33 34 33 32 32 34 36 38 39 39 38 39 38 36 34 37 41 46 50 49 47 46 46 46 45 44 44 43 43 43 44 44 43 40 38 36 33 31 30 30 30 31 33 36
45 45 44 43 42 40 38 36 35 32 30 29 28 28 28 29 28 27 26 25 25 25 25 25 27 28 30 33 36 39 41 42 43 43 42 38 35 34 33 31 31 32 33 33 33 33 34 37 40 42 41 38 38 39 37 34 35 39 43 47 48 47 46 46 47 46 45 45 45 45 45 45 45 44 42 40 38 35 31 30 30 31 33 36 38
45 45 43 41 40 39 37 36 34 31 30 28 27 28 29 29 28 27 25 25 24 23 23 24 24 26 27 28 30 32 33 34 36 38 41 42 42 41 39 36 35 34 34 35 35 34 35 37 40 42 42 40 38 37 35 33 35 38 42 45 46 46 45 47 47 46 45 45 45 46 47 46 45 45 43 40 38 35 31 31 32 33 34 36 38
43 42 41 40 39 38 37 35 33 32 30 29 27 27 28 28 28 27 26 25 24 23 23 23 23 24 25 26 26 27 27 27 29 30 33 36 39 42 42 42 41 38 37 37 37 37 37 38 39 41 42 41 39 36 34 34 35 37 40 44 45 45 45 46 47 46 45 45 45 47 48 48 46 45 43 40 36 33 31 33 36 36 36 37 37
40 39 39 39 39 38 37 35 33 32 30 29 28 27 27 26 26 26 26 25 24 24 23 23 24 24 24 23 22 24 25 25 25 26 27 29 32 35 37 39 40 39 38 39 39 40 40 40 39 40 41 41 39 36 33 34 35 36 39 42 46 47 46 46 47 46 44 44 46 48 48 48 46 45 45 43 39 35 34 37 40 40 39 39 39
39 39 39 39 39 38 37 35 33 31 29 28 27 27 26 25 24 25 25 26 25 25 24 24 24 24 25 23 22 22 23 23 24 24 25 27 29 32 34 36 38 38 39 39 39 40 41 41 40 40 40 40 39 36 33 32 33 35 38 40 44 48 49 49 48 47 45 45 46 47 48 48 46 46 47 47 46 42 41 42 43 43 42 42 43
39 39 40 40 39 38 37 36 34 31 28 27 27 27 27 25 24 24 24 25 26 26 26 25 25 25 26 25 23 23 22 23 23 24 25 27 29 32 35 36 38 39 39 38 37 38 39 40 41 41 40 39 37 36 33 31 31 33 36 39 42 45 49 51 51 50 49 49 48 48 49 48 47 48 49 49 48 46 44 45 45 44 43 44 45
37 39 40 41 40 39 38 37 34 31 29 28 28 28 28 27 26 25 25 25 25 26 27 27 27 26 27 26 25 24 23 23 23 24 25 26 28 33 37 38 38 39 40 40 39 38 38 39 40 41 40 39 38 36 34 33 32 32 34 38 41 42 44 48 50 52 54 54 52 51 51 51 50 49 50 49 48 48 48 47 47 46 46 46 47
36 37 39 40 40 40 39 38 36 34 32 31 30 28 27 27 26 26 26 26 26 27 28 28 28 28 28 28 27 26 25 24 23 24 25 26 28 31 37 41 40 39 40 41 42 41 40 40 40 41 41 41 40 39 36 35 35 35 35 36 39 42 43 43 46 49 53 55 55 55 55 54 52 51 51 50 49 50 50 49 48 48 47 47 49
37 37 38 38 39 40 40 40 39 38 37 35 34 31 30 29 28 28 28 28 28 28 28 29 30 30 30 29 28 28 27 26 25 25 25 26 28 30 35 41 44 42 41 41 43 44 43 42 43 43 44 44 43 42 40 38 38 39 38 36 37 41 44 44 44 45 48 51 53 54 56 56 55 54 53 51 50 51 50 49 49 49 48 48 50
39 39 39 39 39 40 41 42 42 42 42 41 39 38 36 34 34 33 33 32 31 31 31 31 32 32 32 32 30 29 29 28 27 26 26 27 28 29 32 37 43 46 45 43 43 44 45 45 45 46 46 46 46 45 43 41 40 41 41 40 38 39 42 45 45 45 45 47 49 50 52 54 56 56 56 55 54 53 51 49 49 49 49 49 50
43 41 41 41 40 40 42 44 45 46 46 45 44 43 42 41 40 39 39 37 35 33 33 34 34 34 34 34 33 32 31 30 29 28 27 27 28 29 31 33 38 43 46 47 45 45 46 47 47 48 48 47 47 47 46 44 43 43 42 42 41 40 41 44 46 46 46 46 47 48 48 50 53 55 56 57 56 55 54 52 51 50 50 51 51
47 45 43 42 42 42 43 44 46 48 49 49 48 47 46 46 46 45 45 43 40 37 34 35 35 36 36 36 36 36 35 33 32 31 30 30 29 30 31 32 34 38 42 46 48 48 47 47 49 50 50 50 49 48 48 47 46 46 45 44 43 43 43 44 45 46 47 47 48 48 48 48 50 52 54 55 55 55 55 54 53 51 51 51 52
52 51 48 45 43 43 43 45 46 47 49 50 51 51 50 50 50 50 49 48 46 42 38 37 36 36 37 37 38 38 38 37 36 35 34 33 32 32 32 33 33 35 38 42 46 48 49 49 49 50 52 52 52 51 50 50 49 49 48 47 46 45 45 45 46 47 48 49 49 49 49 49 49 51 53 54 55 55 55 54 54 53 52 52 52
54 54 52 49 46 44 44 45 46 47 48 49 51 52 52 53 53 53 52 51 49 47 44 42 40 39 38 38 39 39 40 40 40 39 38 36 36 35 35 35 34 35 36 38 42 45 48 49 49 49 51 53 54 54 53 52 52 51 51 50 49 47 47 47 47 47 49 50 51 52 52 52 51 51 52 54 55 56 56 56 56 55 54 53 53
53 54 53 52 50 49 48 48 48 49 50 51 51 52 53 53 54 54 54 54 53 51 49 47 45 43 41 40 40 41 41 41 41 41 41 41 40 39 39 38 37 37 36 37 39 42 44 47 49 50 50 51 54 56 56 56 55 55 54 53 53 51 50 49 49 49 50 51 52 53 54 54 54 54 53 54 55 56 57 58 58 58 57 56 55
52 53 54 54 54 54 54 54 54 54 54 55 55 54 54 54 55 55 55 55 54 53 52 50 47 45 44 43 42 42 42 42 42 42 43 43 43 43 42 42 41 40 40 39 39 41 42 45 47 49 50 50 52 54 57 58 59 59 57 56 56 55 55 54 53 53 53 53 54 54 55 56 56 56 56 56 56 57 57 58 59 60 60 60 59
54 54 55 56 57 57 58 59 59 58 58 57 57 56 56 56 56 57 56 55 54 53 52 50 48 46 45 44 44 43 43 42 43 44 44 44 45 45 45 45 45 45 44 43 42 42 43 44 45 47 49 50 50 51 54 56 59 61 61 60 58 58 58 58 58 57 56 56 56 56 56 57 58 58 58 58 58 58 58 59 60 61 62 62 62
55 56 57 57 57 58 60 61 61 60 58 58 57 57 57 58 58 58 57 56 52 48 46 45 45 45 45 45 45 45 44 44 44 45 46 46 45 46 46 47 47 47 47 47 46 46 45 45 46 47 48 50 51 51 52 53 54 57 59 61 60 60 59 59 60 60 60 60 60 59 58 58 58 59 59 60 60 60 60 60 61 61 62 63 64
54 55 55 55 54 55 57 59 59 58 57 57 57 57 58 59 59 58 56 52 47 40 38 38 39 41 43 45 46 47 48 47 46 45 47 48 47 47 47 47 47 48 49 49 50 50 50 49 49 48 48 49 51 52 53 53 54 54 55 57 58 60 60 60 60 60 61 61 62 62 61 60 59 59 60 60 61 61 61 62 62 62 62 63 63
54 55 54 53 52 53 55 56 57 57 57 59 59 58 58 55 50 47 44 42 39 36 37 38 39 40 41 42 45 47 49 49 49 48 48 48 49 48 48 48 48 49 50 51 52 52 52 53 53 52 52 51 51 52 53 53 54 55 56 55 56 57 59 60 60 60 61 62 62 63 64 63 62 61 61 61 61 61 62 63 63 63 64 64 64
54 54 54 52 51 53 55 56 57 58 58 59 59 59 56 48 39 35 34 36 38 41 44 44 43 43 44 44 45 46 48 49 50 51 51 51 51 50 50 50 50 51 51 52 53 54 55 55 55 56 55 55 54 54 54 54 54 55 56 57 57 57 58 59 60 61 62 63 64 64 65 65 65 64 64 63 63 63 63 63 63 64 64 64 65
51 51 53 53 53 55 57 57 57 56 55 54 54 54 54 50 44 42 41 43 47 49 49 48 47 47 47 46 46 46 46 48 49 51 52 53 54 54 54 55 55 55 56 56 57 57 57 57 58 58 58 58 57 57 57 57 57 57 57 57 58 59 59 60 60 61 62 63 65 66 67 67 68 68 67 67 66 66 66 65 65 65 64 64 65
50 50 51 53 56 58 57 56 56 54 51 50 49 50 53 55 54 52 52 52 52 52 51 50 50 50 48 48 48 47 47 48 49 50 52 53 54 55 57 58 58 59 59 59 60 60 60 60 60 60 60 60 60 61 61 61 61 60 60 60 60 60 61 61 62 62 62 63 65 66 68 69 69 70 70 70 70 69 69 69 69 68 68 67 67
54 54 54 56 59 60 58 57 56 54 53 51 49 50 53 58 59 59 59 58 57 57 55 54 53 52 51 50 50 50 50 50 50 51 52 53 54 55 56 57 57 58 59 60 61 62 63 63 63 63 63 63 63 63 63 64 64 64 64 64 64 64 63 64 64 64 64 64 65 67 69 69 69 71 72 72 72 72 72 73 73 72 72 72 71
58 58 59 59 60 61 61 60 59 58 57 56 54 53 55 59 62 63 63 63 63 62 61 59 57 56 54 52 52 52 53 53 53 53 53 53 54 55 55 55 56 57 58 59 60 62 64 65 65 65 65 65 65 65 65 66 67 67 67 67 67 68 68 68 68 68 66 65 65 68 70 71 70 71 73 74 74 74 75 75 76 75 76 76 76
61 61 61 61 62 62 63 63 62 62 61 61 60 59 59 61 64 66 66 66 67 67 66 65 64 62 59 57 55 53 53 53 54 55 55 55 55 56 55 55 55 57 58 59 60 62 64 65 66 66 67 68 68 68 68 68 69 69 70 70 70 71 71 71 72 73 72 69 68 69 72 73 71 71 73 75 75 75 76 77 78 78 78 78 79
63 63 62 61 62 63 64 65 65 65 65 65 64 64 65 66 68 69 70 70 70 70 69 69 68 67 64 61 59 57 55 53 53 54 55 55 56 57 57 57 57 58 58 59 61 64 64 64 65 68 69 71 71 71 71 71 71 72 72 73 74 74 74 75 75 76 76 75 72 72 74 76 74 72 74 75 75 76 77 78 79 79 79 79 80
65 65 65 64 64 65 67 67 68 69 69 69 69 70 71 72 72 72 72 72 72 71 71 70 69 68 66 64 62 60 59 57 55 55 55 55 56 56 57 58 59 60 60 61 63 65 64 63 65 68 70 72 73 73 73 73 73 74 74 75 76 76 76 77 78 79 80 79 77 76 76 79 78 76 76 77 77 77 77 78 79 80 80 80 81
67 67 67 68 68 68 69 70 71 72 72 73 73 73 73 73 73 72 72 72 72 72 72 71 70 68 67 65 64 62 62 61 60 59 58 57 57 57 58 58 59 60 62 64 66 67 66 65 66 68 70 71 72 73 74 75 75 76 76 77 78 78 78 78 80 81 82 82 82 80 79 80 81 80 79 80 80 80 80 80 80 80 80 80 81
68 69 69 70 70 71 71 72 73 74 74 74 74 73 72 71 71 71 71 71 72 72 72 72 71 69 68 67 65 64 64 63 63 63 62 62 61 61 61 60 61 62 63 65 67 68 68 69 70 70 71 72 72 74 75 76 77 78 78 79 79 80 79 80 81 82 83 84 84 83 81 82 83 83 83 84 84 84 84 85 84 83 83 82 83
70 71 72 72 72 73 73 74 75 75 75 74 73 72 71 70 69 69 70 70 71 71 71 71 70 69 68 67 67 66 66 66 66 66 66 66 65 65 65 65 65 65 66 67 68 69 70 72 73 73 73 74 74 75 77 78 79 79 80 81 81 82 81 81 82 83 85 86 86 86 84 83 84 84 85 86 87 87 88 88 88 87 87 87 87
71 72 73 73 73 74 74 75 75 75 74 73 72 70 69 68 68 68 69 70 70 70 71 70 70 69 69 68 68 68 68 68 68 68 68 69 69 69 70 69 69 69 69 69 70 71 72 73 74 75 76 77 78 78 78 79 79 80 80 81 82 83 83 83 84 84 85 87 88 88 86 85 85 85 86 87 88 89 90 90 91 91 90 90 90
71 72 72 72 72 73 73 73 73 73 72 70 69 68 67 67 67 68 68 69 69 69 69 69 70 70 70 70 69 70 70 70 70 70 71 71 72 73 74 74 74 74 74 74 74 74 74 74 75 77 79 80 81 81 81 81 81 81 81 82 82 83 83 84 85 85 86 87 90 91 89 87 87 88 88 88 89 91 92 93 93 93 93 93 93
Wind_Direction
285 284 284 284 284 284 283 282 282 283 285 287 289 291 291 290 290 289 289 290 289 288 288 287 287 286 281 278 275 271 268 266 264 263 261 258 255 254 254 257 260 264 270 274 272 271 273 273 270 266 260 256 254 251 246 242 238 235 231 226 226 230 235 239 239 236 236 239 241 242 243 244 246 248 248 245 244 244 245 248 252 255 255 256 257
284 284 283 283 284 282 281 283 285 287 288 288 289 289 289 288 288 288 289 289 288 287 286 286 286 283 278 276 273 269 265 262 261 260 259 256 254 254 255 256 259 263 268 269 268 269 271 270 268 265 261 256 254 251 247 243 239 236 233 229 227 227 230 234 236 235 235 240 243 245 246 245 243 244 245 244 244 245 245 247 254 258 258 256 256
285 284 282 282 282 281 282 284 286 287 287 287 287 287 286 286 287 289 291 292 290 287 285 284 283 279 276 273 269 264 261 260 258 256 256 255 254 254 254 254 258 262 263 262 263 265 267 266 265 265 263 259 254 249 246 243 241 238 234 232 228 227 228 231 232 232 234 238 242 245 247 245 243 242 243 242 243 245 246 251 257 257 255 254 255
285 281 280 281 280 280 282 284 285 285 284 285 285 286 286 288 292 295 297 296 292 289 286 282 279 276 273 271 266 259 256 258 257 253 253 253 253 254 255 256 259 261 258 258 260 262 263 263 264 266 266 262 256 249 244 242 242 241 239 235 230 227 228 230 230 230 232 235 239 244 247 247 244 243 243 241 241 244 247 252 255 255 253 253 255
280 279 280 279 278 279 281 283 283 280 281 284 286 289 293 296 299 302 303 298 291 289 288 282 278 275 271 267 262 255 252 254 255 254 253 253 254 255 257 259 261 258 254 256 258 260 262 263 265 267 266 263 258 252 245 241 240 242 242 239 233 229 229 231 231 231 231 233 237 242 247 248 245 245 244 240 239 242 246 249 251 252 253 256 258
278 278 277 275 277 280 282 284 282 282 288 291 293 298 302 304 306 307 306 299 290 289 288 282 277 273 268 263 257 252 250 251 253 254 255 256 257 258 258 259 259 254 252 254 257 259 262 264 266 267 265 263 259 253 248 242 238 239 241 241 236 231 229 232 233 233 232 233 236 241 246 248 245 244 243 239 238 241 243 246 249 253 256 259 261
273 274 274 275 280 284 289 290 289 293 299 301 302 307 309 308 309 309 306 300 294 292 287 280 276 270 264 258 251 249 250 251 253 254 256 257 258 258 257 256 254 250 249 252 256 258 261 265 266 266 265 261 258 253 249 244 238 237 238 239 237 232 229 231 234 235 234 234 237 240 244 246 244 242 240 238 239 242 243 247 251 256 259 261 262
270 272 276 281 284 284 287 291 295 300 304 306 308 310 310 308 307 306 303 298 296 295 288 280 274 267 260 254 248 246 248 252 255 257 257 258 258 257 256 254 251 249 248 252 257 259 263 266 265 263 263 261 257 252 248 245 240 237 236 236 236 233 229 229 234 238 237 236 237 240 244 246 244 241 239 239 242 244 246 249 253 257 259 260 260
272 273 278 282 285 285 286 290 296 301 304 307 309 310 309 306 303 302 301 298 296 296 291 282 272 265 259 253 247 245 247 251 254 256 257 257 257 256 255 253 252 250 250 253 258 261 264 264 261 260 261 259 257 252 247 244 239 237 236 235 236 236 232 228 231 239 240 237 237 239 243 246 244 241 240 242 244 247 249 252 253 254 256 257 258
273 275 279 282 284 286 288 292 295 298 300 303 305 306 305 301 299 300 301 300 296 294 291 282 271 265 258 251 246 244 247 252 253 254 254 254 254 254 254 254 254 254 254 256 258 260 262 260 256 257 258 257 258 255 249 243 238 236 235 234 235 237 235 230 228 236 241 239 238 239 242 245 244 242 242 244 246 249 251 251 249 248 250 254 257
274 276 278 280 283 285 287 290 292 294 297 300 303 303 300 295 291 289 293 298 297 293 289 282 273 265 256 248 244 245 249 253 254 255 256 256 255 255 255 255 256 256 257 258 258 259 259 255 253 255 255 254 257 257 252 244 238 237 236 234 234 236 236 233 228 230 236 237 237 239 242 245 244 244 244 245 247 250 251 249 247 247 249 252 255
276 277 278 279 281 283 285 288 291 294 296 299 302 300 294 287 275 272 281 290 290 285 283 281 277 267 255 247 247 250 252 253 255 257 258 259 259 258 257 256 256 256 257 258 258 257 255 253 253 253 253 254 257 259 255 246 238 236 237 235 234 234 236 236 231 227 230 232 234 237 240 240 240 243 246 247 247 249 251 251 251 251 252 254 255
277 278 280 280 282 283 286 288 291 294 296 298 299 294 285 276 269 270 276 280 277 273 274 276 277 270 257 249 250 254 255 254 254 255 257 260 260 259 257 256 255 255 256 256 256 255 253 252 254 255 254 255 258 259 256 248 239 235 236 237 236 235 235 237 235 229 228 230 232 234 234 234 235 239 243 247 248 250 253 255 256 257 258 259 258
278 280 282 283 284 286 287 289 291 293 295 296 294 288 280 273 270 270 273 274 272 270 269 272 274 271 262 254 253 256 258 256 255 255 258 260 259 257 256 255 254 254 254 254 254 254 253 253 256 256 255 254 255 256 254 248 241 235 234 237 238 237 236 237 235 231 228 230 231 231 234 236 237 238 241 245 247 249 251 254 256 257 260 260 258
280 282 284 285 287 288 289 290 292 293 293 291 287 282 279 276 273 273 273 272 269 265 263 266 270 269 264 261 258 258 258 258 257 256 259 262 259 255 254 253 253 254 255 255 255 255 255 255 256 255 252 251 253 253 251 246 242 237 234 235 237 239 238 236 234 232 231 231 232 234 238 241 240 239 241 244 245 247 249 251 253 255 257 255 252
282 283 284 286 287 288 289 290 291 290 288 285 282 280 280 279 276 275 274 273 269 264 261 262 265 265 264 263 262 260 259 258 257 256 259 262 258 254 252 252 253 256 257 258 257 257 257 255 252 251 249 249 251 251 250 246 241 237 234 234 236 237 238 236 233 232 233 234 235 237 240 241 242 242 242 244 245 247 250 251 252 252 253 250 249
283 284 284 285 286 286 287 288 287 286 284 282 281 281 282 282 279 276 276 276 274 269 264 262 262 263 263 263 261 260 259 258 257 255 257 260 257 255 255 256 256 257 258 259 260 260 259 256 251 248 247 248 250 252 250 246 241 237 234 234 235 236 236 236 235 233 235 236 235 236 237 239 244 247 248 247 247 248 251 251 249 248 248 247 248
283 284 284 284 285 285 284 283 282 281 282 283 283 283 283 283 281 279 278 279 278 275 271 267 264 263 261 260 259 257 257 256 255 253 253 255 256 255 257 259 258 257 257 258 259 260 260 260 255 250 246 246 250 252 252 249 243 238 234 234 235 236 236 237 237 237 238 237 235 234 236 240 246 251 251 248 247 249 251 249 248 248 249 249 251
283 284 284 284 284 283 281 279 278 278 281 284 286 286 286 284 282 280 280 281 281 280 277 273 269 266 263 261 259 257 257 256 256 254 251 250 251 251 253 255 255 254 255 256 258 259 261 260 255 251 248 246 250 253 255 253 246 238 234 233 234 237 238 238 239 240 242 242 239 236 238 243 247 249 249 249 249 251 252 251 251 252 254 255 256
283 283 283 283 282 280 278 277 276 277 279 283 286 288 287 284 281 279 280 281 283 282 280 276 272 270 267 264 262 260 259 258 257 256 253 249 247 248 250 251 250 250 252 254 256 258 260 258 253 251 250 248 249 254 256 254 247 240 235 232 233 236 238 239 240 241 244 245 243 240 240 242 244 245 247 249 251 250 249 250 251 253 255 257 257
279 280 279 279 278 277 276 276 276 277 278 281 283 286 286 283 279 278 279 280 282 283 281 277 274 271 268 266 265 264 261 258 256 256 254 251 247 247 248 249 250 249 249 249 251 254 255 253 251 251 250 249 250 252 253 251 246 242 237 233 231 233 236 238 239 241 242 243 243 242 241 241 242 244 245 245 246 245 244 247 250 251 252 251 251
274 273 272 273 274 275 275 276 276 277 279 280 281 283 284 283 279 276 277 279 280 281 281 279 276 273 270 268 267 264 261 258 256 255 254 252 247 243 243 246 248 247 245 246 248 250 250 250 251 253 253 252 252 251 249 248 245 241 239 236 232 231 233 236 237 239 240 241 242 242 243 244 245 247 247 245 244 240 238 241 245 246 247 246 244
269 267 266 267 270 272 273 274 275 277 278 279 280 282 283 284 282 279 277 277 278 280 280 280 278 275 273 270 266 264 264 261 258 255 253 251 246 239 236 240 243 244 244 244 245 246 247 247 248 251 253 254 254 252 246 243 243 241 239 238 236 234 233 235 236 237 238 239 241 242 244 245 246 248 249 248 247 243 239 239 243 246 247 247 246
269 266 263 263 265 268 270 271 272 274 277 279 281 283 283 283 284 284 282 279 278 278 279 280 279 276 274 272 268 266 265 264 260 257 254 251 246 237 232 235 240 241 244 245 244 244 246 247 246 246 249 251 253 254 249 243 241 241 239 238 238 237 237 237 237 238 238 237 238 240 241 242 243 246 248 249 250 249 245 244 248 251 250 249 248
271 267 264 263 263 264 266 267 268 270 273 276 279 282 283 282 282 284 284 283 280 277 276 276 277 276 274 271 269 266 265 264 262 260 256 252 247 239 232 233 237 239 242 245 245 245 246 248 247 246 246 247 248 251 251 248 245 244 243 239 237 237 238 240 240 240 241 240 239 239 240 241 242 244 246 248 250 251 250 250 252 254 253 251 251
272 270 267 265 263 262 262 262 264 266 269 271 274 277 280 281 282 284 284 284 282 279 276 274 274 274 273 271 269 267 265 264 263 261 258 254 250 242 234 232 234 237 239 242 244 246 246 247 248 248 248 247 247 247 249 249 249 249 247 244 240 238 237 240 241 242 243 244 243 242 242 243 243 244 246 247 249 251 253 254 255 256 256 255 255
275 274 272 270 266 263 261 261 262 264 266 267 269 270 273 276 279 282 284 284 283 281 279 276 274 272 271 271 270 268 265 263 262 262 260 257 253 248 240 235 234 236 238 239 242 244 246 247 248 249 249 249 249 247 247 247 249 251 251 249 246 242 240 240 241 243 245 246 246 245 244 243 243 244 246 247 248 251 253 254 255 256 257 257 256
277 277 276 274 271 267 264 262 262 263 264 266 267 267 269 272 275 279 282 284 283 281 279 278 275 273 271 270 269 269 267 264 262 262 261 260 257 254 249 243 239 238 238 239 241 242 244 246 248 250 251 251 251 250 249 248 248 251 252 251 249 247 244 242 242 242 244 246 248 247 246 244 244 245 246 247 248 249 251 251 253 255 256 257 257
275 277 277 275 273 271 268 265 264 263 264 265 266 267 268 270 273 277 280 282 282 280 280 279 277 275 272 269 268 268 267 266 264 262 261 260 259 257 254 250 246 243 242 241 241 242 243 244 246 249 252 252 252 253 253 251 250 250 251 252 251 249 246 245 244 244 244 245 247 248 248 247 246 246 247 248 249 249 250 250 250 251 253 254 255
271 273 275 273 271 269 268 266 265 264 264 265 266 268 269 270 272 274 278 280 280 278 278 278 278 277 275 272 269 267 266 265 264 264 263 261 260 259 257 254 251 248 245 244 243 243 243 244 244 246 249 252 253 254 254 255 254 252 251 250 251 251 249 247 245 245 245 245 246 248 248 247 248 248 248 248 248 249 249 249 249 249 250 251 252
270 271 272 272 270 267 266 266 266 266 266 267 268 269 270 271 272 273 275 278 278 276 277 277 276 276 275 274 272 269 267 265 264 264 263 263 262 261 259 258 255 253 250 247 246 245 245 246 245 244 245 248 250 252 253 255 256 255 253 251 250 250 250 250 248 247 246 247 247 248 249 248 248 248 248 248 248 248 249 249 249 249 249 249 250
269 270 271 271 268 266 266 267 267 268 268 268 269 270 271 272 273 273 274 276 276 274 275 276 275 273 272 273 273 271 269 267 265 263 262 262 262 262 261 260 258 256 254 251 249 248 247 247 248 247 245 244 246 248 249 251 253 255 255 254 252 250 249 249 250 250 250 249 248 249 250 250 250 249 248 249 249 249 249 249 248 248 249 248 248
270 271 272 271 268 266 267 269 270 270 269 269 269 269 271 271 272 273 274 275 275 274 273 273 272 270 269 270 271 270 269 267 266 264 263 262 262 261 261 260 259 257 255 254 252 251 250 248 249 249 248 245 244 244 245 246 248 251 254 255 255 254 251 250 249 249 250 251 251 250 250 250 251 251 250 249 249 249 249 249 249 248 248 248 247
270 270 271 272 271 270 271 272 274 273 271 270 270 271 272 273 274 274 275 275 275 274 272 271 270 267 266 267 269 269 268 267 266 265 263 262 261 261 261 261 260 259 257 255 253 251 251 250 249 249 249 248 246 245 244 244 245 247 250 252 254 255 255 254 252 251 250 250 250 251 250 249 249 250 250 249 249 249 249 249 250 249 249 248 247
270 269 269 270 271 272 273 274 274 273 272 272 272 273 274 274 274 274 274 275 275 274 273 270 268 265 265 266 267 267 266 267 267 266 264 262 261 260 260 260 260 260 259 258 256 253 251 250 249 249 249 249 248 247 246 246 245 246 247 248 250 252 253 253 254 254 253 252 251 251 251 251 250 249 249 249 249 249 249 249 250 250 250 250 249
270 270 270 270 271 272 273 272 272 272 272 272 272 273 274 274 274 274 273 272 273 274 274 272 269 266 265 265 265 265 265 267 268 266 264 262 261 260 259 259 259 260 260 260 259 258 256 254 252 251 250 249 249 248 248 247 247 247 247 248 248 249 249 250 250 251 251 252 253 253 252 251 251 251 250 250 249 249 249 249 250 250 251 251 251
271 270 270 271 272 273 272 272 272 272 272 272 271 271 272 274 274 273 271 268 267 271 276 276 274 271 268 267 266 265 265 266 267 266 263 261 260 260 260 259 259 259 259 259 259 259 259 258 256 254 253 252 251 250 249 248 249 249 249 249 249 249 249 249 249 248 248 249 251 253 254 253 252 251 250 250 250 250 250 250 250 251 251 252 252
271 272 272 272 272 272 271 272 273 273 273 273 272 272 272 273 274 272 265 258 259 269 276 278 278 274 271 270 270 269 267 265 265 264 263 260 259 259 259 259 260 260 259 258 258 258 258 258 258 257 256 255 254 253 252 251 250 250 250 250 250 250 250 250 250 249 248 248 248 250 253 254 254 253 251 250 250 250 251 251 251 251 252 253 253
270 272 272 272 272 270 269 270 272 274 274 275 276 277 276 275 274 270 260 254 262 274 278 278 278 275 272 271 273 273 271 268 265 263 261 260 259 258 258 259 260 261 262 260 258 257 257 256 256 256 256 256 256 256 255 254 253 252 251 251 251 251 251 250 250 250 250 249 249 248 250 252 254 255 254 254 252 251 251 250 251 251 252 252 253
270 271 273 273 271 268 269 271 273 274 274 274 276 278 278 276 275 273 270 270 274 280 281 280 280 278 275 275 276 275 274 273 270 267 264 262 260 260 260 260 261 262 263 262 260 258 257 256 255 255 255 255 255 256 256 256 255 254 253 253 252 251 251 251 250 250 250 250 251 250 250 250 251 253 254 255 255 255 254 253 252 251 251 252 253
267 268 269 270 269 269 270 271 271 271 270 271 273 273 274 276 278 278 280 281 282 283 284 283 282 281 279 279 279 278 277 276 274 272 269 266 264 263 262 262 263 263 263 262 260 258 257 256 255 255 254 254 254 255 255 255 255 255 255 254 254 253 252 251 251 250 249 250 250 251 251 251 251 251 251 252 253 254 255 255 255 254 254 254 254
264 264 264 265 266 268 269 269 268 267 266 267 268 268 269 274 277 280 282 284 285 286 285 284 283 282 281 281 281 281 279 277 275 273 272 271 269 267 265 264 264 264 263 261 259 257 257 256 256 255 255 254 254 254 254 255 255 255 255 255 255 255 254 253 252 251 250 250 250 250 250 250 251 252 251 251 251 252 252 253 254 254 255 255 256
261 263 263 262 263 265 266 266 265 265 265 265 265 265 266 269 273 277 280 282 284 285 285 285 284 283 281 280 280 279 278 277 276 274 272 271 270 269 268 267 266 265 264 262 259 257 256 256 256 255 255 255 255 254 255 255 255 255 255 255 255 256 256 255 255 253 252 251 251 252 251 250 249 251 252 251 251 251 251 252 252 252 253 254 254
260 262 263 262 262 262 262 263 263 264 264 264 264 264 265 266 269 273 276 279 281 282 282 282 283 282 282 280 278 277 276 275 274 274 273 272 271 270 269 267 266 266 265 265 263 260 257 256 256 256 255 255 255 254 254 255 255 255 254 254 254 255 255 255 256 256 254 252 252 253 254 253 250 250 252 252 251 252 252 252 252 252 252 252 252
259 260 262 262 261 260 260 260 261 262 263 263 264 265 267 268 269 271 273 276 278 278 278 279 279 280 280 280 279 278 277 274 272 271 271 271 271 271 270 269 267 266 265 265 264 263 261 259 258 257 256 256 255 255 255 255 255 255 255 255 254 254 254 254 255 256 256 254 253 253 255 256 254 253 253 253 252 252 252 253 253 252 252 252 252
259 260 261 261 260 260 259 260 260 261 262 262 263 265 268 270 271 271 272 274 275 276 276 276 277 278 278 279 279 279 278 277 275 272 271 269 269 269 269 269 268 268 267 266 264 263 263 262 261 261 259 258 258 257 258 258 258 257 257 256 256 255 255 255 255 255 256 256 255 253 254 256 256 255 255 256 255 254 254 254 254 253 253 253 253
260 260 260 261 261 260 260 261 262 263 263 264 265 266 268 269 270 271 272 274 274 275 276 276 277 277 278 278 277 277 277 277 277 276 274 272 270 269 267 267 266 266 266 266 266 266 265 263 262 261 261 261 261 260 260 259 258 258 258 257 257 257 256 256 257 257 257 257 257 255 255 256 256 256 256 257 257 256 256 255 255 255 254 254 254
260 261 261 261 262 262 263 263 264 265 266 267 267 268 269 270 271 271 272 272 273 273 274 275 276 276 277 277 277 277 277 277 277 277 276 275 274 273 271 269 268 266 264 264 264 266 266 265 263 262 261 261 261 261 260 259 259 258 258 258 258 258 258 257 258 258 258 258 258 257 256 256 257 257 257 257 257 257 257 257 256 256 256 255 255
260 261 261 261 262 262 263 264 264 265 266 267 268 268 269 270 270 270 271 271 271 271 272 272 273 274 275 275 276 277 277 277 277 277 277 277 276 276 275 273 272 270 268 267 266 265 264 264 265 264 263 262 261 260 260 260 259 259 259 259 259 259 259 259 259 259 259 259 258 257 257 256 257 258 258 258 258 258 258 258 258 257 256 256 256
260 260 261 261 262 262 263 264 264 265 266 267 267 268 268 268 268 269 269 269 269 269 270 271 272 272 273 274 275 276 276 277 277 277 277 277 277 277 277 276 275 273 272 270 269 267 266 265 264 265 264 264 263 262 261 261 261 260 260 259 259 259 259 259 259 259 260 260 260 259 258 257 257 257 257 258 259 259 259 259 259 258 258 257 257
259 260 261 261 262 263 263 264 265 265 266 267 267 267 267 267 267 267 267 268 268 268 268 269 270 271 272 274 275 275 276 276 276 277 277 278 278 278 278 278 277 277 275 274 272 270 269 267 266 265 264 264 264 263 263 263 262 262 261 261 261 261 260 260 259 259 259 260 261 261 260 259 258 257 257 256 257 259 260 260 259 260 260 259 259